Weather in Bol'shie Klyuchishchi

Russia / Ulyanovsk Oblast     54°08′19″N   48°14′06″E
temp.,
°C
wind,
m/s
gust,
m/s
humid.,
%
clouds,
%
prec.,
mm/h
press.,
hPa
HPBL,
m
14 april, wed
wed1401:00+9s22675 0.0 103113
04:00+8s22715 0.0 103110
07:00+7se11735 0.0 103010
10:00+11ese35666 0.0 1029231
13:00+15se46655 0.0 1028651
16:00+16se46602 0.0 1026734
19:00+14se25705 0.0 102490
22:00+11se22803 0.0 102425
15 april, thu
thu1501:00+10s22853 0.0 102319
04:00+8s22863 0.0 102313
07:00+8sse11844 0.0 102216
10:00+13sse23641 0.0 1021285
13:00+17sse244825 0.0 1020824
16:00+18se2344100 0.0 1019956
19:00+15ne11584 0.0 101822
22:00+12ene11675 0.0 101910
16 april, fri
fri1601:00+10ene117426 0.0 101811
04:00+9ene2281100 0.0 101911
07:00+8ne248269 0.0 102071
10:00+10ne467353 0.0 1021239
13:00+13nne577346 0.0 1021325
16:00+13nne696761 0.0 1021330
19:00+10nne497374 0.0 1022247
22:00+9ne3108069 0.0 1023290
17 april, sat
sat1701:00+7ne397262 0.0 1024244
04:00+5ne386964 0.0 1025187
07:00+4ne3871100 0.0 1026222
10:00+8ne575010 0.0 1026576
13:00+10nne57375 0.0 1027804
16:00+10nne67345 0.0 1026665
19:00+9nne48410 0.0 1027402
22:00+7nne23480 0.0 102854
18 april, sun
sun1801:00+5n22560 0.0 102840
04:00+4nne35685 0.0 1029114
07:00+3nne38765 0.0 1030289
10:00+6nne46605 0.0 1031708
13:00+8ne46440 0.0 1031932
16:00+7ne79353 0.0 10301479
19:00+9ne36485 0.0 1031497
22:00+6ne38595 0.0 1032197